Погода в Лисце

Украина / Ивано-Франковская область     48°52′17″N   24°36′16″E
темп.,
°C
ветер,
м/с
пор.,
м/с
влажн.,
%
обл.,
%
осадки,
мм/ч
давл.,
гПа
погр.,
м
11 апреля, вс
вс1100:00+4юз22750 0.0 102418
03:00+3юз22765 0.0 102417
06:00+3ююз227842 0.0 102514
09:00+7юв236497 0.0 1024189
12:00+13вюв455241 0.0 1023879
15:00+15вюв55455 0.0 10221351
18:00+14вюв57547 0.0 1021752
21:00+8юв37646 0.0 1023175
12 апреля, пн
пн1200:00+6ююв1175100 0.0 102318
03:00+6ююз117399 0.0 102213
06:00+5ююз1175100 0.0 102211
09:00+9вюв116780 0.0 1022149
12:00+14в33515 0.0 1020858
15:00+16вюв434993 0.0 10181265
18:00+16юв335257 0.0 1017881
21:00+10ю237571 0.0 101941
13 апреля, вт
вт1300:00+11ююз1171100 0.0 101814
03:00+10ююз11749 0.0 101712
06:00+9ююв1174100 0.0 101710
09:00+11св1170100 0.0 1017129
12:00+16в3457100 0.0 1015723
15:00+17в2354100 0.2 10141202
18:00+7сз5995100 3.9 1016308
21:00+5сз4795100 9.1 1017354
14 апреля, ср
ср1400:00+4сз3594100 3.1 1017309
03:00+4сз3494100 4.0 1015279
06:00+3ссз3496100 3.3 1014318
09:00+2сз3495100 3.8 1013337
12:00+2сз3495100 1.6 1013319
15:00+2сз2398100 4.8 1012194
18:00+1сз2499100 1.6 1012141
21:00+1зсз24100100 3.5 1013134
15 апреля, чт
чт1500:00+2сз13100100 0.8 1013211
03:00+1зсз119897 1.1 101497
06:000зюз1295100 0.0 101574
09:00+2з1280100 0.0 1016266
12:00+4ссз3476100 0.0 1016633
15:00+3ссз3797100 1.8 1017445
18:00+1сз38100100 5.8 1018297
21:00+1зсз41199100 10.4 1018472